Regional Weather Roundup
Issued by NWS

Home | Current Version | Previous Version | Graphics & Text | Print | Product List | Glossary On
Versions: 1 2 3 4 5 6 7 8 9 10 11 12 13 14 15 16 17 18 19 20 21 22 23 24 25 26 27 28 29 30 31 32 33 34 35 36 37 38 39 40 41 42 43 44 45 46 47 48 49 50
000
ASUS43 KMKX 231900
RWRWI

WISCONSIN REGIONAL WEATHER ROUNDUP
NATIONAL WEATHER SERVICE MILWAUKEE/SULLIVAN WI
200 PM CDT WED MAY 23 2018

NOTE: "FAIR" INDICATES FEW OR NO CLOUDS BELOW 12,000 FEET WITH NO
SIGNIFICANT WEATHER AND/OR OBSTRUCTIONS TO VISIBILITY.

WIZ001-002-006>008-014>016-023>028-232000-
NORTHWEST WISCONSIN

CITY           SKY/WX    TMP DP  RH WIND       PRES   REMARKS
SUPERIOR ARPT  PTSUNNY   78  58  49 NE7       30.09F
ASHLAND        FAIR      83  54  36 VRB5      30.11F HX  82
HAYWARD        FAIR      80  58  46 SW8       30.13F HX  80
SIREN          PTSUNNY   78  58  51 S9        30.13S
CUMBERLAND     CLOUDY    72  59  64 S12       30.14F
RICE LAKE      FAIR      77  58  53 SE7       30.15F
CHETEK         CLOUDY    76  62  61 S8G16     30.14F
LADYSMITH      FAIR      78  59  52 SW6       30.17S
EAU CLAIRE     NOT AVBL
MENOMONIE      FAIR      78  62  58 SE6       30.13F
NEW RICHMOND   FAIR      76  58  54 CALM      30.14F
OSCEOLA        FAIR      77  60  54 S9        30.15F
$$

WIZ003>005-009-010-017-018-232000-
NORTH CENTRAL WISCONSIN

CITY           SKY/WX    TMP DP  RH WIND       PRES   REMARKS
MANITOWISH WTR FAIR      78  53  41 S5        30.14F
ARBOR VITAE    FAIR      80  54  40 S7        30.15S HX  80
WOODRUFF       FAIR      80  54  40 S7        30.15S HX  80
RHINELANDER    FAIR      83  54  36 W9        30.15F HX  82
EAGLE RIVER    FAIR      80  47  30 CALM      30.14F
LAND O LAKES   PTSUNNY   81  45  27 SW5       30.15F HX  80
PHILLIPS       FAIR      77  56  48 S6        30.14F
TOMAHAWK       FAIR      78  53  42 CALM      30.16S
MEDFORD        CLOUDY    74  57  55 SW6       30.17S
MERRILL        FAIR      77  57  49 E3        30.15F
$$

WIZ029-030-035-036-043>047-232000-
CENTRAL WISCONSIN

CITY           SKY/WX    TMP DP  RH WIND       PRES   REMARKS
WAUSAU         FAIR      77  56  48 SW5       30.14S
MOSINEE        PTSUNNY   77  57  50 S9        30.17F
MARSHFIELD     PTSUNNY   76  61  59 S8        30.16
STEVENS POINT  FAIR      75  56  52 S5        30.16F
WAUPACA        FAIR      81  58  45 S5        30.16S HX  81
WAUTOMA        FAIR      75  58  55 SW6       30.16F
WISC RAPIDS    FAIR      76  56  49 SW10      30.17F
CAMP DOUGLAS   NOT AVBL
$$

WIZ011>013-019>022-031-037>040-048>050-232000-
NORTHEAST WISCONSIN

CITY           SKY/WX    TMP DP  RH WIND       PRES   REMARKS
ANTIGO         FAIR      77  54  45 SW6       30.17S
SHAWANO        FAIR      82  52  34 SW8       30.14F HX  81
OCONTO         FAIR      78  41  25 SE9       30.14F
STURGEON BAY   NOT AVBL
GREEN BAY      FAIR      79  58  48 SW9       30.15F HX  80
MANITOWOC      FAIR      73  60  63 S14       30.17F
APPLETON       PTSUNNY   77  54  44 VRB5      30.15F
CLINTONVILLE   FAIR      80  51  36 S7        30.14F HX  80
OSHKOSH        FAIR      76  59  55 S7        30.16F
$$

WIZ032>034-041-042-053>061-232000-
SOUTHWEST WISCONSIN

CITY           SKY/WX    TMP DP  RH WIND       PRES   REMARKS
LA CROSSE      FAIR      79  64  60 S10       30.14S HX  81
SPARTA         FAIR      75  61  60 SE7       30.17S
VIROQUA        FAIR      76  63  63 S8        30.17F
BOSCOBEL       FAIR      80  63  55 VRB7      30.16F HX  81
PRAIRIE DU CHI FAIR      77  61  58 E8        30.15S
PLATTEVILLE    FAIR      74  64  70 SE7       30.17F
$$

WIZ056-057-062-063-064-067-068-232000-
SOUTH CENTRAL WISCONSIN

CITY           SKY/WX    TMP DP  RH WIND       PRES   REMARKS
REEDSBURG      FAIR      76  63  64 SW5       30.16F
BARABOO/DELLS  FAIR      76  57  52 S5        30.17F
LONE ROCK      NOT AVBL
MINERAL POINT  FAIR      77  63  61 S6        30.19S
MADISON        PTSUNNY   76  59  55 S8        30.17F
MIDDLETON      FAIR      78  60  52 SE5       30.18F
WATERTOWN      FAIR      76  56  49 SW5       30.18F
MONROE         FAIR      73  55  53 S5        30.19F
JANESVILLE     MOSUNNY   77  59  53 S6        30.19F
$$

WIZ051-052-058>065-066-070>072-232000-
SOUTHEAST WISCONSIN

CITY           SKY/WX    TMP DP  RH WIND       PRES   REMARKS
MILWAUKEE      PTSUNNY   74  62  66 SE10      30.19F
WAUKESHA       SUNNY     75  46  35 S6        30.20S
MILWAUKEE/TIMM SUNNY     79  50  36 E9        30.19F
RACINE         FAIR      70  59  68 SE9       30.21F
BURLINGTON     FAIR      76  54  45 W3        30.19F
KENOSHA        FAIR      74  58  57 E10       30.20F
FOND DU LAC    FAIR      74  59  59 SW9       30.17F
SHEBOYGAN      FAIR      77  52  41 S7        30.17F
WEST BEND      FAIR      75  52  43 S8        30.18F
JUNEAU         FAIR      75  61  60 S5        30.19F
$$

LSZ147-162-232000-
LAKE SUPERIOR

STATION/POSITION TIME  TEMP    WIND        PRES    WAVE
                       AIR SEA DIR/SP/G            HT/PER
                 (UTC) (F)     (DEG/KT/KT) (MB)    (FT/S)
W MID LAKE BUOY  1750   41 37  240/  2/  2 1021.3R   0
DEVILS ISLAND    1800   51      20/  8/  9 1020.8R
SAXON HARBOR     1830   65     340/  2/  5 1019.3F
$$

LMZ867-665-643>646-232000-
LAKE MICHIGAN

STATION/POSITION TIME  TEMP    WIND        PRES    WAVE
                       AIR SEA DIR/SP/G            HT/PER
                 (UTC) (F)     (DEG/KT/KT) (MB)    (FT/S)
N MID LAKE BUOY  1840   39 38  190/  4/  6 1021.4F
NORTHPORT PIER   1840   50     130/  6/  7 1021.0F
KEWAUNEE LAKESHO 1830   53     150/  7/  8 1021.0F
SHEBOYGAN LAKESH 1800   48     160/ 12/ 14 1022.3F
PORT WASHINGTON  1840   61     180/  5/  9 1023.4S
ATWATER BUOY     1807   54 50  170/ 10/ 12 1022.7    1
MILWAUKEE LAKESH 1830   56     150/ 14/ 15   N/A
S MID LAKE BUOY  1750   42 40  180/  2/  4 1024.0R   0
KENOSHA   LAKESH 1800   58                 1023.0
$$

TC  - TEMPERATURE IN CELSIUS
VSB - VISIBILITY IN STATUTE MILES
WCI - WIND CHILL INDEX
HX  - HEAT INDEX





USA.gov is the U.S. government's official web portal to all federal, state and local government web resources and services.